Location: �clusier
(49.9361°N, 2.7869°E)
Time: 04:42:53
(UTC+00:00)

Cosmos 2016 Rocket - Pass Details

Date: 01 November 2021
Orbit: 947 x 1000 km, 83.0° (Epoch: 05 December)

Event Time Altitude Azimuth Distance (km) Brightness Sun altitude
Rises 17:16:46 0° 139° (SE) 3,638 6.7 -8.7°
Reaches altitude 10° 17:19:59 10° 123° (ESE) 2,688 5.9 -9.2°
Maximum altitude 17:24:08 19° 80° (E) 2,089 5.1 -9.9°
Drops below altitude 10° 17:28:16 10° 37° (NE) 2,684 5.9 -10.5°
Sets 17:31:27 0° 21° (NNE) 3,631 6.7 -11.0°
